This is the latest recevied weather packets stored in our database for station/object KJ5JYX. If no packets are shown the sender has not sent any weather packets the latest 1 day(s).
| Time | Temp. | Humidity | Pressure | Rain* | Wind** | Luminosity | Snow |
|---|---|---|---|---|---|---|---|
| 1778121853 | 16.67° C | 88% | 1016.3 hPa | 0 mm | - | 0 W/m² | - |
| 1778121548 | 16.67° C | 88% | 1016.5 hPa | 0 mm | - | 0 W/m² | - |
| 1778120639 | 16.67° C | 88% | 1016.3 hPa | 0 mm | - | 0 W/m² | - |
| 1778120335 | 16.67° C | 88% | 1016.2 hPa | 0 mm | - | 0 W/m² | - |
| 1778120030 | 16.67° C | 88% | 1016.3 hPa | 0 mm | - | 0 W/m² | - |
| 1778119729 | 16.67° C | 88% | 1015.9 hPa | 0 mm | - | 0 W/m² | - |
| 1778119425 | 17.22° C | 89% | 1016.1 hPa | 0 mm | - | 0 W/m² | - |
| 1778119122 | 16.67° C | 89% | 1016 hPa | 0 mm | - | 0 W/m² | - |
| 1778118820 | 16.67° C | 90% | 1016 hPa | 0 mm | - | 0 W/m² | - |
| 1778118517 | 16.67° C | 90% | 1015.9 hPa | 0 mm | - | 0 W/m² | - |
| 1778118213 | 16.67° C | 90% | 1015.6 hPa | 0 mm | - | 0 W/m² | - |
| 1778117909 | 16.67° C | 90% | 1015.5 hPa | 0 mm | - | 0 W/m² | - |
| 1778117607 | 16.67° C | 90% | 1015.5 hPa | 0 mm | - | 0 W/m² | - |
| 1778117000 | 16.67° C | 90% | 1015.2 hPa | 0 mm | - | 0 W/m² | - |
| 1778116697 | 16.67° C | 90% | 1015.2 hPa | 0 mm | - | 1 W/m² | - |
| 1778116394 | 16.67° C | 90% | 1015.3 hPa | 0 mm | - | 1 W/m² | - |
| 1778116094 | 16.67° C | 89% | 1015 hPa | 0 mm | - | 1 W/m² | - |
| 1778115790 | 16.67° C | 89% | 1014.7 hPa | 0 mm | - | 3 W/m² | - |
| 1778115487 | 16.67° C | 89% | 1014.9 hPa | 0 mm | - | 4 W/m² | - |
| 1778114880 | 16.67° C | 89% | 1014.6 hPa | 0 mm | - | 6 W/m² | - |
| 1778114578 | 16.67° C | 89% | 1014.5 hPa | 0 mm | - | 9 W/m² | - |
| 1778114274 | 16.67° C | 88% | 1014.8 hPa | 0 mm | - | 11 W/m² | - |
| 1778113969 | 16.67° C | 89% | 1014.6 hPa | 0 mm | - | 11 W/m² | - |
| 1778113362 | 16.67° C | 88% | 1014.3 hPa | 0 mm | - | 16 W/m² | - |
| 1778112756 | 17.22° C | 88% | 1014.3 hPa | 0 mm | - | 22 W/m² | - |
* Rain latest hour (hover to see other rain measurements)
** Current wind speed in m/s (hover to see current wind gust speed)